• Join FlightAware (Why Join?)
  • Login
  • US Flag 
11:16PM EDT


 

Airport Tracker/Info


-or-


 

Live Flight TrackerFlight Track Log ✈ N6356V ✈ 07-Nov-2013 ✈ KGFK - KFAR

Flight Track Log - Related Links

Times and Time Zones

All times are in EST time to prevent confusion due to time zone crossing. See the N6356V flight status page for this flight to view local times or setup timezone preferences in your user account.

Time Position Orientation Groundspeed Altitude Reporting Facility
EST Latitude Longitude Course Direction KTS MPH feet Rate Location/Type
02:15PM 47.9344 -97.1781 153° Southeast 126 145 1,500  Level Minneapolis Center
02:15PM 47.9011 -97.1522 153° Southeast 152 175 2,900 1,440 Climbing Minneapolis Center
02:16PM 47.8847 -97.1419 157° South 148 170 3,400 1,200 Climbing Minneapolis Center
02:16PM 47.8594 -97.1247 155° Southeast 179 206 4,100 1,200 Climbing Minneapolis Center
02:17PM 47.8369 -97.1239 179° South 170 196 4,700 1,560 Climbing Minneapolis Center
02:17PM 47.8069 -97.1239 180° South 185 213 5,700 1,500 Climbing Minneapolis Center
02:18PM 47.7864 -97.1236 179° South 181 208 6,300 1,260 Climbing Minneapolis Center
02:18PM 47.7586 -97.1225 178° South 176 203 7,000 660 Climbing Minneapolis Center
02:19PM 47.7300 -97.1194 176° South 187 215 7,000  Level Minneapolis Center
02:19PM 47.6950 -97.1108 171° South 233 268 7,000  Level Minneapolis Center
02:20PM 47.6633 -97.1025 170° South 227 261 7,000  Level Minneapolis Center
02:20PM 47.6289 -97.0936 170° South 237 273 7,000  Level Minneapolis Center
02:21PM 47.5964 -97.0831 168° South 233 268 7,000  Level Minneapolis Center
02:22PM 47.5625 -97.0736 169° South 234 269 7,000  Level Minneapolis Center
02:22PM 47.5306 -97.0647 169° South 231 266 7,000  Level Minneapolis Center
02:23PM 47.4692 -97.0472 169° South 231 266 7,000  Level Minneapolis Center
02:24PM 47.4028 -97.0289 169° South 234 269 7,000  Level Minneapolis Center
02:25PM 47.3344 -97.0103 170° South 238 274 7,000  Level Minneapolis Center
02:26PM 47.2697 -96.9806 163° South 234 269 7,000  Level Minneapolis Center
02:27PM 47.2156 -96.9164 141° Southeast 244 281 7,000 -720 Level Minneapolis Center
02:28PM 47.1947 -96.8208 108° East 248 285 5,600 -1,320 Descending Minneapolis Center
02:29PM 47.1333 -96.8083 172° South 215 247 4,300 -1,080 Descending Minneapolis Center
02:30PM 47.0806 -96.8161 186° South 198 228 3,400 -960 Descending Minneapolis Center
02:31PM 47.0244 -96.8150 179° South 194 223 2,400 -720 Descending Minneapolis Center
02:32PM 46.9850 -96.8153 180° South 146 168 2,000 -600 Descending Minneapolis Center
02:33PM 46.9492 -96.8153 180° South 123 142 1,200 -780 Descending Minneapolis Center
02:35PM 46.9207 -96.8158 193° South  Level Estimated